Preview of NWS' New Version of Forecast
This preview is not operational and should not be used for support decisions.

Regional Weather Roundup (RWR)

Issued by National Weather Service (NWS)

                            
000
ASUS45 KBOU 180210
RWRCO 

WEATHER ROUNDUP FOR COLORADO
NATIONAL WEATHER SERVICE DENVER/BOULDER CO
800 PM MDT WED APR 17 2019

NOTE: "FAIR" INDICATES FEW OR NO CLOUDS BELOW 12000 FEET WITH NO
SIGNIFICANT WEATHER AND/OR OBSTRUCTIONS TO VISIBILITY.

COZ001>005-013-030-031-180300-
...NORTHWEST COLORADO...
  
CITY           SKY/WX    TMP DP  RH WIND       PRES   REMARKS
CRAIG          FAIR      50  26  39 NW16G24   30.11R                  
HAYDEN         FAIR      48  25  40 NW17G24   30.11R                  
MEEKER         FAIR      51  20  29 N12       30.10R                  
RANGELY        FAIR      53  31  43 NW6       30.09R                  
RABBIT EARS PA FAIR      27  25  93 W17G31    30.14R WCI  14          
STEAMBOAT SPGS CLOUDY    46  25  44 W12       30.10R                  
WALDEN         FAIR      39  21  48 NW10      30.11R                  
$$

COZ006>008-011-180300-
...WEST CENTRAL VALLEYS...
  
CITY           SKY/WX    TMP DP  RH WIND       PRES   REMARKS
GRAND JUNCTION FAIR      58  25  28 NW15      30.03R                  
MONTROSE       FAIR      56  25  30 NW12      30.06R                  
EAGLE          FAIR      53  21  28 NW8       30.09R                  
RIFLE          FAIR      56  23  27 NW6       30.05R                  
DELTA          FAIR      62  19  19 NW20G29   30.03R                  
NUCLA          FAIR      55  23  28 NW13      30.10R                  
$$

COZ017>023-064>068-180300-
...SOUTHWEST COLORADO...
  
CITY           SKY/WX    TMP DP  RH WIND       PRES   REMARKS
DURANGO        FAIR      56  19  23 NW16      29.96R                  
CORTEZ         FAIR      56  28  34 NW17G30   30.03R                  
PAGOSA SPRINGS FAIR      52  18  26 N3        30.00R                  
TELLURIDE      FAIR      43  21  42 NW12      30.16R                  
WOLF CREEK PAS FAIR      30  18  59 NW14G23   30.21R WCI  20          
$$

COZ009-010-012-014-032>034-037-058>063-180300-
...CENTRAL COLORADO...
  
CITY           SKY/WX    TMP DP  RH WIND       PRES   REMARKS
ASPEN          FAIR      47  18  31 NW17G23   30.09R                  
BUENA VISTA    FAIR      49  17  27 N12       30.02R                  
COPPER MTN     MOCLDY    32  21  64 NW16G24   30.19R WCI  21          
BERTHOUD PASS  FAIR      19  10  68 NW44G53   30.12S WCI  -2          
COTTONWOOD PAS FAIR      43  18  36 W15G26    30.09R                  
GUNNISON       FAIR      47  24  40 N9        30.06R                  
GRANBY         FAIR      40  22  48 W15       30.11R                  
KREMMLING      CLOUDY    46  23  39 W9        30.11R                  
LEADVILLE      FAIR      36  22  56 N12       30.11R                  
MONARCH PASS   FAIR      32  19  59 W18       30.29R WCI  20          
SALIDA         FAIR      49  33  54 SE6       30.09R                  
SUNLIGHT       FAIR      30  16  55 W12G22    30.24R WCI  21          
WILKERSON PASS FAIR      34  12  40 N8G18     30.17R WCI  27          
$$

COZ069>075-180300-
...SAN LUIS VALLEY/SANGRE DE CRISTO MOUNTAINS...
  
CITY           SKY/WX    TMP DP  RH WIND       PRES   REMARKS
ALAMOSA        FAIR      43  32  65 SE8       29.98R                  
DEL NORTE      FAIR      49  22  34 NW20      30.02R                  
LA VETA PASS   NOT AVBL                                               
SAGUACHE       FAIR      50  19  29 NW5G21    30.00R                  
$$

COZ035-036-038>040-180300-
...NORTHERN COLORADO FRONT RANGE...
  
CITY           SKY/WX    TMP DP  RH WIND       PRES   REMARKS
DENVER INTL AP MOCLDY    56  33  42 NE5       29.93R                  
AURORA         PTCLDY    54  36  50 E6        29.93R                  
FRONT RANGE AP MOCLDY    57  36  44 NE3       29.94R                  
ERIE MUNI ARPT FAIR      58  33  39 CALM      29.97R                  
BOULDER MUN AP FAIR      55  37  50 CALM      29.93R                  
CENTENNIAL     FAIR      53  35  50 E6        29.94R                  
BROOMFIELD     MOCLDY    57  23  26 NW12      29.94R                  
FORT COLLINS   MOCLDY    57  31  37 N15       29.93R                  
LONGMONT       FAIR      55  40  59 NW3       29.95R                  
$$

COZ041-046-047-076>085-087-088-180300-
...PIKES PEAK/PALMER DIVIDE AND SOUTHERN FOOTHILLS...
  
CITY           SKY/WX    TMP DP  RH WIND       PRES   REMARKS
COLO. SPRINGS  FAIR      52  34  50 S6        29.96R                  
A. F. ACADEMY  FAIR      51  33  50 CALM      29.95R                  
SCHRIEVER AFB  NOT AVBL                                               
CHEYENNE MTN   FAIR      48  35  58 SW6       29.93R                  
ELLICOTT         N/A    N/A N/A N/A NE8       29.95R                  
FALCON         NOT AVBL                                               
FORT CARSON    FAIR      52  36  54 W8        29.95R                  
LIMON          FAIR      48  30  49 NE12      29.93R                  
MONUMENT HILL  FAIR      43  32  65 MISG      30.01R                  
CANON CITY     NOT AVBL                                               
WALSENBURG     NOT AVBL                                               
TRINIDAD       FAIR      49  40  71 W12       29.95S                  
$$

COZ042>045-048>051-090-091-180300-
...NORTHEAST COLORADO...
  
CITY           SKY/WX    TMP DP  RH WIND       PRES   REMARKS
GREELEY ARPT   MOCLDY    60  25  26 N14       29.91R                  
AKRON          MOCLDY    48  31  51 NE8       29.92R                  
BURLINGTON     FAIR      53  29  39 N12       29.88R                  
WRAY           FAIR      52  28  40 N9        29.89R                  
YUMA           NOT AVBL                                               
STERLING       FAIR      54  34  47 NE8       29.90R                  
HOLYOKE        FAIR      54  32  43 N13       29.90R                  
FORT MORGAN      N/A     51  35  52 NE6       29.93R                  
$$

COZ086-089-092>099-180300-
...SOUTHEAST COLORADO...
  
CITY           SKY/WX    TMP DP  RH WIND       PRES   REMARKS
PUEBLO         FAIR      54  39  57 W7        29.90S                  
LA JUNTA       FAIR      54  32  43 NE9       29.87R                  
LAMAR          FAIR      54  32  43 NE7       29.84R                  
SPRINGFIELD      N/A     51  35  54 N9        29.85R                  
$$